Regional Weather Roundup
Issued by NWS

Home | Current Version | Previous Version | Graphics & Text | Print | Product List | Glossary Off
Versions: 1 2 3 4 5 6 7 8 9 10 11 12 13 14 15 16 17 18 19 20 21 22 23 24 25 26 27 28 29 30 31 32 33 34 35 36 37 38 39 40 41 42 43 44 45 46 47 48 49 50

000
ASUS43 KMKX 170200
RWRWI

WISCONSIN REGIONAL WEATHER ROUNDUP
NATIONAL WEATHER SERVICE MILWAUKEE/SULLIVAN WI
900 PM CDT WED APR 16 2014

NOTE: "FAIR" INDICATES FEW OR NO CLOUDS BELOW 12,000 FEET WITH NO
SIGNIFICANT WEATHER AND/OR OBSTRUCTIONS TO VISIBILITY.

WIZ001-002-006>008-014>016-023>028-170300-
NORTHWEST WISCONSIN

CITY           SKY/WX    TMP DP  RH WIND       PRES   REMARKS
SUPERIOR ARPT  LGT SNOW  28  27  94 NE18G30   30.16S WCI  15
ASHLAND        SNOW      27  26  96 NE22G30   30.17R VSB 1/2 WCI  13
HAYWARD        LGT SNOW  28  25  88 NE14G23   30.06S FOG     WCI  17
SIREN          LGT SNOW  29  28  95 NE14      30.03R WCI  18
RICE LAKE      LGT RAIN  34  32  92 E13       30.00S WCI  25
LADYSMITH      LGT SNOW  35  32  90 E10       30.03S WCI  27
EAU CLAIRE     NOT AVBL
MENOMONIE      LGT RAIN  40  34  81 N9        29.94R WCI  34
NEW RICHMOND   RAIN      34  34 100 NE13G18   29.95R WCI  25
OSCEOLA        LGT SNOW  32  32 100 NE9       29.99R WCI  24
$$

WIZ003>005-009-010-017-018-170300-
NORTH CENTRAL WISCONSIN

CITY           SKY/WX    TMP DP  RH WIND       PRES   REMARKS
WOODRUFF       LGT SNOW  32  28  87 SE10G16   30.09R WCI  23
RHINELANDER    LGT SNOW  30  27  88 SE14G23   30.10R VSB 1   WCI  19
EAGLE RIVER    LGT SNOW  29  28  96 SE9G18    30.11R VSB 1   WCI  21
LAND O LAKES   LGT SNOW  29  28  96 E8        30.13R VSB 3/4 WCI  21
PHILLIPS       LGT SNOW  31  29  90 E8        30.04R WCI  24
TOMAHAWK       LGT SNOW  32  28  84 SE9G16    30.07R WCI  24
MEDFORD        CLOUDY    34  30  85 E14G22    30.02S WCI  24
MERRILL        CLOUDY    34  28  80 CALM      30.08R
$$

WIZ029-030-035-036-043>047-170300-
CENTRAL WISCONSIN

CITY           SKY/WX    TMP DP  RH WIND       PRES   REMARKS
WAUSAU         CLOUDY    36  26  67 SE16G26   30.06R WCI  26
MOSINEE        PTCLDY    36  27  69 E14G25    30.07  WCI  27
MARSHFIELD     CLOUDY    38  28  67 E16       30.02R WCI  29
STEVENS POINT  CLOUDY    36  25  65 E17G24    30.07R WCI  25
WAUPACA        CLOUDY    39  27  60 E14G21    30.12R WCI  31
WAUTOMA        NOT AVBL
WISC RAPIDS    CLOUDY    39  28  64 E16       30.06R WCI  30
CAMP DOUGLAS   NOT AVBL
$$

WIZ011>013-019>022-031-037>040-048>050-170300-
NORTHEAST WISCONSIN

CITY           SKY/WX    TMP DP  RH WIND       PRES   REMARKS
ANTIGO         CLOUDY    32  24  72 SE16      30.11R WCI  21
STURGEON BAY   CLOUDY    34  28  80 E8        30.21F WCI  27
GREEN BAY      CLOUDY    40  24  53 E12       30.17R WCI  33
MANITOWOC      NOT AVBL
APPLETON       CLOUDY    39  23  52 SE12      30.16R WCI  32
CLINTONVILLE   CLOUDY    37  25  60 E16       30.12F WCI  28
OSHKOSH        CLOUDY    41  24  51 SE14      30.13R
$$

WIZ032>034-041-042-053>061-170300-
SOUTHWEST WISCONSIN

CITY           SKY/WX    TMP DP  RH WIND       PRES   REMARKS
LA CROSSE      CLOUDY    52  28  39 SE21G28   29.90S
SPARTA         CLOUDY    49  28  42 SE16G23   29.95S
VIROQUA        CLOUDY    47  30  50 SE21G29   29.93S
BOSCOBEL       CLOUDY    52  28  39 VRB6      29.96S
PRAIRIE DU CHI CLOUDY    52  25  35 SE16G24   29.92S
PLATTEVILLE    FAIR      48  30  48 SE17      29.99F
$$

WIZ056-057-062-063-064-067-068-170300-
SOUTH CENTRAL WISCONSIN

CITY           SKY/WX    TMP DP  RH WIND       PRES   REMARKS
BARABOO/DELLS  MOCLDY    47  29  50 SE12G20   30.03S
LONE ROCK      NOT AVBL
WATERTOWN      CLOUDY    43  27  52 SE20G25   30.06S
MADISON        MOCLDY    47  29  49 S16       30.07R
MIDDLETON      FAIR      48  27  42 S14G21    30.05R
MONROE         MOCLDY    46  29  51 S17G23    30.05R
JANESVILLE     CLOUDY    48  27  43 SE12      30.10R
$$

WIZ051-052-058>065-066-070>072-170300-
SOUTHEAST WISCONSIN

CITY           SKY/WX    TMP DP  RH WIND       PRES   REMARKS
MILWAUKEE      CLOUDY    42  28  57 SE24G32   30.13F
WAUKESHA       CLOUDY    41  25  52 SE17G24   30.12S
MILWAUKEE/TIMM MOCLDY    43  25  49 SE16G24     N/A
RACINE         CLOUDY    41  29  62 SE22G33   30.15F
BURLINGTON     CLOUDY    42  28  55 SW15G22   30.10S
KENOSHA        CLOUDY    43  28  55 SE17G26   30.12F
FOND DU LAC    CLOUDY    41  25  53 SE16      30.11R
SHEBOYGAN      CLOUDY    41  23  48 SE14G23   30.15F
WEST BEND      CLOUDY    39  23  52 SE12G17   30.13S WCI  32
JUNEAU         CLOUDY    42  21  44 SE22      30.07S
$$

LSZ147-162-170300-
LAKE SUPERIOR

STATION/POSITION TIME  TEMP    WIND        PRES    WAVE
                       AIR SEA DIR/SP/G            HT/PER
                 (UTC) (F)     (DEG/KT/KT) (MB)    (FT/S)
DEVILS ISLAND    0100   28      60/ 31/ 35 1023.7F
PORT WING        0128   28      50/ 20/ 25 1021.7R
SAXON HARBOR     0100           60/ 17/ 22 1021.0R
$$

LMZ867-665-643>646-170300-
LAKE MICHIGAN

STATION/POSITION TIME  TEMP    WIND        PRES    WAVE
                       AIR SEA DIR/SP/G            HT/PER
                 (UTC) (F)     (DEG/KT/KT) (MB)    (FT/S)
NORTHPORT PIER   0100   32     110/ 17/ 23 1024.4R
SISTER BAY       0123   33     110/ 13/ 22   N/A
SHEBOYGAN LAKESH 0100   40     120/ 22/ 24 1022.2S
PORT WASHINGTON  0100   40     120/ 15/ 20 1021.7
MILWAUKEE LAKESH 0100   39     120/ 18/ 21   N/A
KENOSHA   LAKESH 0100   40     130/ 20/ 22   N/A
$$

TC  - TEMPERATURE IN CELSIUS
VSB - VISIBILITY IN STATUTE MILES
WCI - WIND CHILL INDEX
HX  - HEAT INDEX




USA.gov is the U.S. government's official web portal to all federal, state and local government web resources and services.